User: anonymous   Login
Location: Unspecified
(0.0000°N, 0.0000°E)
Time: 13:41:14
(UTC+00:00)
Language:

SL-12 R/B(2) - Orbit

View from above orbital plane
View from above orbital plane
View from above satellite
View from above satellite

Ground track
Ground track

The orbit data is extracted from the following two-line orbital elements,

1 26486U 00051D   21212.45562139 -.00000264  00000-0  00000-0 0  9998
2 26486  62.9126  15.8551 7584763 271.7680  11.0160  1.45764156111269
Epoch (UTC): 31 July 2021 10:56:05
Eccentricity: 0.7584763
inclination: 62.9126°
perigee height: 1558 km
apogee height: 51400 km
right ascension of ascending node: 15.8551°
argument of perigee: 271.7680°
revolutions per day: 1.45764156
mean anomaly at epoch: 11.0160°
orbit number at epoch: 11126

The dashed part of the orbit path shows where the satellite is in the earth's shadow,  

DLR